microTime,latitude,longitude,altitude,heading,pitch,roll,horizFOV,vertFOV,relAzimuth,relElev,relRoll
1583544376000000,-27.57377,153.0133,3.025943,60.85,0,0,115.4,70.3,0,0,0
1583544377000000,-27.57378,153.0133,2.830749,60.85,0,0,115.4,70.3,0,0,0
1583544378000000,-27.57378,153.0133,2.934054,60.85,0,0,115.4,70.3,0,0,0
1583544379000000,-27.57378,153.0133,3.063186,60.85,0,0,115.4,70.3,0,0,0
1583544380000000,-27.57378,153.0133,3.165732,60.85,0,0,115.4,70.3,0,0,0
1583544381000000,-27.57378,153.0133,3.072756,60.85,0,0,115.4,70.3,0,0,0
1583544382000000,-27.57378,153.0133,3.396071,60.85,0,0,115.4,70.3,0,0,0
1583544383000000,-27.57378,153.0133,3.264249,60.85,0,0,115.4,70.3,0,0,0
1583544384000000,-27.57378,153.0133,3.171561,60.85,0,0,115.4,70.3,0,0,0
1583544385000000,-27.57378,153.0133,3.232119,60.85,0,0,115.4,70.3,0,0,0
1583544386000000,-27.57378,153.0133,3.054819,60.85,0,0,115.4,70.3,0,0,0
1583544387000000,-27.57378,153.0133,3.154777,60.85,0,0,115.4,70.3,0,0,0
1583544388000000,-27.57378,153.0133,3.286448,60.85,0,0,115.4,70.3,0,0,0
1583544389000000,-27.57378,153.0133,3.492295,60.85,0,0,115.4,70.3,0,0,0
1583544390000000,-27.57378,153.0133,3.419272,60.85,0,0,115.4,70.3,0,0,0
1583544391000000,-27.57378,153.0133,3.483692,60.85,0,0,115.4,70.3,0,0,0
1583544392000000,-27.57378,153.0133,3.600097,60.85,0,0,115.4,70.3,0,0,0
1583544393000000,-27.57378,153.0133,3.600204,60.85,0,0,115.4,70.3,0,0,0
1583544394000000,-27.57378,153.0133,3.259842,60.85,0,0,115.4,70.3,0,0,0
1583544395000000,-27.57378,153.0133,3.435714,60.85,0,0,115.4,70.3,0,0,0
1583544396000000,-27.57378,153.0133,3.167623,60.85,0,0,115.4,70.3,0,0,0
1583544397000000,-27.57378,153.0133,3.298658,60.85,0,0,115.4,70.3,0,0,0
1583544398000000,-27.57378,153.0133,3.233257,60.85,0,0,115.4,70.3,0,0,0
1583544399000000,-27.57378,153.0133,3.318783,60.85,0,0,115.4,70.3,0,0,0
1583544400000000,-27.57378,153.0133,3.201823,60.85,0,0,115.4,70.3,0,0,0
1583544401000000,-27.57378,153.0133,3.304387,60.85,0,0,115.4,70.3,0,0,0
1583544402000000,-27.57378,153.0133,3.319344,60.85,0,0,115.4,70.3,0,0,0
1583544403000000,-27.57377,153.0133,3.423054,60.85,0,0,115.4,70.3,0,0,0
1583544404000000,-27.57377,153.0133,3.372534,60.85,0,0,115.4,70.3,0,0,0
1583544405000000,-27.57377,153.0133,3.352917,60.85,0,0,115.4,70.3,0,0,0
1583544406000000,-27.57377,153.0133,3.180483,60.85,0,0,115.4,70.3,0,0,0
1583544407000000,-27.57377,153.0133,3.416699,60.85,0,0,115.4,70.3,0,0,0
1583544408000000,-27.57377,153.0133,3.607809,60.85,0,0,115.4,70.3,0,0,0
1583544409000000,-27.57377,153.0133,3.379153,60.85,0,0,115.4,70.3,0,0,0
1583544410000000,-27.57377,153.0133,3.549981,60.85,0,0,115.4,70.3,0,0,0
1583544411000000,-27.57377,153.0133,3.393546,60.85,0,0,115.4,70.3,0,0,0
1583544412000000,-27.57377,153.0133,3.407118,60.85,0,0,115.4,70.3,0,0,0
1583544413000000,-27.57377,153.0133,3.289262,60.85,0,0,115.4,70.3,0,0,0
1583544414000000,-27.57377,153.0133,3.566122,60.85,0,0,115.4,70.3,0,0,0
1583544415000000,-27.57377,153.0133,3.561028,60.85,0,0,115.4,70.3,0,0,0
1583544416000000,-27.57377,153.0133,3.510509,60.85,0,0,115.4,70.3,0,0,0
1583544417000000,-27.57377,153.0133,3.596861,60.85,0,0,115.4,70.3,0,0,0
1583544418000000,-27.57377,153.0133,3.441993,60.85,0,0,115.4,70.3,0,0,0
1583544419000000,-27.57377,153.0133,3.430163,60.85,0,0,115.4,70.3,0,0,0
1583544420000000,-27.57377,153.0133,3.454784,60.85,0,0,115.4,70.3,0,0,0
1583544421000000,-27.57377,153.0133,3.292296,56.72,0,0,115.4,70.3,0,0,0
1583544422000000,-27.57377,153.0133,3.513176,56.72,0,0,115.4,70.3,0,0,0
1583544423000000,-27.57377,153.0133,3.630792,56.72,0,0,115.4,70.3,0,0,0
1583544424000000,-27.57377,153.0133,3.475576,56.72,0,0,115.4,70.3,0,0,0
1583544425000000,-27.57377,153.0133,3.457905,56.72,0,0,115.4,70.3,0,0,0
1583544426000000,-27.57377,153.0133,3.32232,56.72,0,0,115.4,70.3,0,0,0
1583544427000000,-27.57377,153.0133,3.138152,56.72,0,0,115.4,70.3,0,0,0
1583544428000000,-27.57377,153.0133,3.193098,56.72,0,0,115.4,70.3,0,0,0
1583544429000000,-27.57377,153.0133,3.149128,56.72,0,0,115.4,70.3,0,0,0
1583544430000000,-27.57377,153.0133,3.217007,56.72,0,0,115.4,70.3,0,0,0
1583544431000000,-27.57377,153.0133,3.43278,56.72,0,0,115.4,70.3,0,0,0
1583544432000000,-27.57377,153.0133,3.247313,56.72,0,0,115.4,70.3,0,0,0
1583544433000000,-27.57377,153.0133,3.220383,56.72,0,0,115.4,70.3,0,0,0
1583544434000000,-27.57377,153.0133,3.240492,56.72,0,0,115.4,70.3,0,0,0
1583544435000000,-27.57377,153.0133,3.45931,56.72,0,0,115.4,70.3,0,0,0
1583544436000000,-27.57377,153.0133,3.404173,56.72,0,0,115.4,70.3,0,0,0
1583544437000000,-27.57376,153.0133,3.403769,56.72,0,0,115.4,70.3,0,0,0
1583544438000000,-27.57376,153.0133,3.420262,56.72,0,0,115.4,70.3,0,0,0
1583544439000000,-27.57376,153.0133,3.402977,56.72,0,0,115.4,70.3,0,0,0
1583544440000000,-27.57376,153.0133,3.39937,56.72,0,0,115.4,70.3,0,0,0
1583544441000000,-27.57376,153.0133,3.285878,56.72,0,0,115.4,70.3,0,0,0
1583544442000000,-27.57376,153.0133,3.418688,56.72,0,0,115.4,70.3,0,0,0
1583544443000000,-27.57376,153.0133,3.455143,56.72,0,0,115.4,70.3,0,0,0
1583544444000000,-27.57376,153.0133,3.42353,56.72,0,0,115.4,70.3,0,0,0
1583544445000000,-27.57376,153.0133,3.36126,56.72,0,0,115.4,70.3,0,0,0
1583544446000000,-27.57376,153.0133,3.205929,56.72,0,0,115.4,70.3,0,0,0
1583544447000000,-27.57376,153.0133,3.347268,56.72,0,0,115.4,70.3,0,0,0
1583544448000000,-27.57377,153.0133,3.407317,56.72,0,0,115.4,70.3,0,0,0
1583544449000000,-27.57377,153.0133,3.420039,56.72,0,0,115.4,70.3,0,0,0
1583544450000000,-27.57377,153.0133,3.439664,56.72,0,0,115.4,70.3,0,0,0
1583544451000000,-27.57376,153.0133,3.236935,56.72,0,0,115.4,70.3,0,0,0
1583544452000000,-27.57376,153.0133,3.168291,56.72,0,0,115.4,70.3,0,0,0
1583544453000000,-27.57376,153.0133,3.392195,56.72,0,0,115.4,70.3,0,0,0
1583544454000000,-27.57377,153.0133,3.451542,56.72,0,0,115.4,70.3,0,0,0
1583544455000000,-27.57377,153.0133,3.381416,56.72,0,0,115.4,70.3,0,0,0
1583544456000000,-27.57377,153.0133,3.533243,56.72,0,0,115.4,70.3,0,0,0
1583544457000000,-27.57377,153.0133,3.59571,56.72,0,0,115.4,70.3,0,0,0
1583544458000000,-27.57377,153.0133,3.728598,56.72,0,0,115.4,70.3,0,0,0
1583544459000000,-27.57377,153.0133,3.708212,56.72,0,0,115.4,70.3,0,0,0
1583544460000000,-27.57376,153.0133,3.805444,56.72,0,0,115.4,70.3,0,0,0
1583544461000000,-27.57377,153.0133,3.582431,56.72,0,0,115.4,70.3,0,0,0
1583544462000000,-27.57377,153.0133,3.498151,56.72,0,0,115.4,70.3,0,0,0
1583544463000000,-27.57377,153.0133,3.625669,56.72,0,0,115.4,70.3,0,0,0
1583544464000000,-27.57377,153.0133,3.567092,56.72,0,0,115.4,70.3,0,0,0
1583544465000000,-27.57377,153.0133,3.610975,56.72,0,0,115.4,70.3,0,0,0
1583544466000000,-27.57377,153.0133,3.525896,56.72,0,0,115.4,70.3,0,0,0
1583544467000000,-27.57377,153.0133,3.588539,56.72,0,0,115.4,70.3,0,0,0
1583544468000000,-27.57377,153.0133,3.436967,56.72,0,0,115.4,70.3,0,0,0
1583544469000000,-27.57377,153.0133,3.448053,56.72,0,0,115.4,70.3,0,0,0
1583544470000000,-27.57377,153.0133,3.336796,56.72,0,0,115.4,70.3,0,0,0
1583544471000000,-27.57377,153.0133,3.440308,56.72,0,0,115.4,70.3,0,0,0
1583544472000000,-27.57377,153.0133,3.436447,56.72,0,0,115.4,70.3,0,0,0
1583544473000000,-27.57377,153.0133,3.471912,56.72,0,0,115.4,70.3,0,0,0
1583544474000000,-27.57377,153.0133,3.391334,56.72,0,0,115.4,70.3,0,0,0
1583544475000000,-27.57377,153.0133,3.344471,56.72,0,0,115.4,70.3,0,0,0
1583544476000000,-27.57377,153.0133,3.11707,56.72,0,0,115.4,70.3,0,0,0
1583544477000000,-27.57377,153.0133,3.010227,56.72,0,0,115.4,70.3,0,0,0
1583544478000000,-27.57377,153.0133,3.114738,56.72,0,0,115.4,70.3,0,0,0
1583544479000000,-27.57377,153.0133,3.177326,56.72,0,0,115.4,70.3,0,0,0
1583544480000000,-27.57377,153.0133,3.094026,56.72,0,0,115.4,70.3,0,0,0
1583544481000000,-27.57377,153.0133,3.074531,56.72,0,0,115.4,70.3,0,0,0
1583544482000000,-27.57377,153.0133,3.246418,56.72,0,0,115.4,70.3,0,0,0
1583544483000000,-27.57377,153.0133,3.12237,56.72,0,0,115.4,70.3,0,0,0
1583544484000000,-27.57377,153.0133,3.196373,56.72,0,0,115.4,70.3,0,0,0
1583544485000000,-27.57377,153.0133,3.20812,56.72,0,0,115.4,70.3,0,0,0
1583544486000000,-27.57377,153.0133,3.380193,56.72,0,0,115.4,70.3,0,0,0
1583544487000000,-27.57377,153.0133,3.260802,56.72,0,0,115.4,70.3,0,0,0
1583544488000000,-27.57377,153.0133,3.324511,56.72,0,0,115.4,70.3,0,0,0
1583544489000000,-27.57377,153.0133,3.248408,56.72,0,0,115.4,70.3,0,0,0
1583544490000000,-27.57377,153.0133,3.328749,56.72,0,0,115.4,70.3,0,0,0
1583544491000000,-27.57377,153.0133,3.372093,56.72,0,0,115.4,70.3,0,0,0
1583544492000000,-27.57377,153.0133,3.244527,56.72,0,0,115.4,70.3,0,0,0
1583544493000000,-27.57377,153.0133,3.357851,56.72,0,0,115.4,70.3,0,0,0
1583544494000000,-27.57377,153.0133,3.451558,56.72,0,0,115.4,70.3,0,0,0
1583544495000000,-27.57377,153.0133,3.328638,56.72,0,0,115.4,70.3,0,0,0
1583544496000000,-27.57377,153.0133,3.387834,56.72,0,0,115.4,70.3,0,0,0
1583544497000000,-27.57377,153.0133,3.412143,56.72,0,0,115.4,70.3,0,0,0
1583544498000000,-27.57377,153.0133,3.084528,60.35,0,0,115.4,70.3,0,0,0
1583544499000000,-27.57377,153.0133,3.135514,60.35,0,0,115.4,70.3,0,0,0
1583544500000000,-27.57377,153.0133,3.199686,60.35,0,0,115.4,70.3,0,0,0
1583544501000000,-27.57377,153.0133,3.349861,60.35,0,0,115.4,70.3,0,0,0
1583544502000000,-27.57377,153.0133,3.223263,60.35,0,0,115.4,70.3,0,0,0
1583544503000000,-27.57377,153.0133,3.219192,60.35,0,0,115.4,70.3,0,0,0
1583544504000000,-27.57377,153.0133,3.148566,60.35,0,0,115.4,70.3,0,0,0
1583544505000000,-27.57377,153.0133,3.12441,60.35,0,0,115.4,70.3,0,0,0
1583544506000000,-27.57377,153.0133,3.36561,60.35,0,0,115.4,70.3,0,0,0
1583544507000000,-27.57377,153.0133,3.241271,60.35,0,0,115.4,70.3,0,0,0
1583544508000000,-27.57377,153.0133,3.261056,60.35,0,0,115.4,70.3,0,0,0
1583544509000000,-27.57377,153.0133,3.269475,60.35,0,0,115.4,70.3,0,0,0
1583544510000000,-27.57377,153.0133,3.176722,60.35,0,0,115.4,70.3,0,0,0
1583544511000000,-27.57377,153.0133,3.43743,60.35,0,0,115.4,70.3,0,0,0
1583544512000000,-27.57377,153.0133,3.623047,60.35,0,0,115.4,70.3,0,0,0
1583544513000000,-27.57377,153.0133,3.612854,60.35,0,0,115.4,70.3,0,0,0
1583544514000000,-27.57377,153.0133,3.365395,60.35,0,0,115.4,70.3,0,0,0
1583544515000000,-27.57377,153.0133,3.458732,60.35,0,0,115.4,70.3,0,0,0
1583544516000000,-27.57377,153.0133,3.286657,60.35,0,0,115.4,70.3,0,0,0
1583544517000000,-27.57377,153.0133,3.296813,60.35,0,0,115.4,70.3,0,0,0
1583544518000000,-27.57377,153.0133,3.235325,60.35,0,0,115.4,70.3,0,0,0
1583544519000000,-27.57377,153.0133,3.358085,60.35,0,0,115.4,70.3,0,0,0
1583544520000000,-27.57377,153.0133,3.380508,60.35,0,0,115.4,70.3,0,0,0
1583544521000000,-27.57377,153.0133,3.403253,60.35,0,0,115.4,70.3,0,0,0
1583544522000000,-27.57377,153.0133,3.672431,60.35,0,0,115.4,70.3,0,0,0
1583544523000000,-27.57377,153.0133,3.679009,31.89,0,0,115.4,70.3,0,0,0
1583544524000000,-27.57377,153.0133,3.651337,31.89,0,0,115.4,70.3,0,0,0
1583544525000000,-27.57377,153.0133,3.512486,31.89,0,0,115.4,70.3,0,0,0
1583544526000000,-27.57377,153.0133,3.286457,31.89,0,0,115.4,70.3,0,0,0
1583544527000000,-27.57377,153.0133,3.499989,31.89,0,0,115.4,70.3,0,0,0
1583544528000000,-27.57377,153.0133,3.590333,31.89,0,0,115.4,70.3,0,0,0
1583544529000000,-27.57377,153.0133,3.366178,31.89,0,0,115.4,70.3,0,0,0
1583544530000000,-27.57377,153.0133,3.622792,31.89,0,0,115.4,70.3,0,0,0
1583544531000000,-27.57377,153.0133,3.491757,31.89,0,0,115.4,70.3,0,0,0
1583544532000000,-27.57377,153.0133,3.460466,31.89,0,0,115.4,70.3,0,0,0
1583544533000000,-27.57377,153.0133,3.191991,31.89,0,0,115.4,70.3,0,0,0
1583544534000000,-27.57377,153.0133,3.455724,31.89,0,0,115.4,70.3,0,0,0
1583544535000000,-27.57377,153.0133,3.477113,31.89,0,0,115.4,70.3,0,0,0
1583544536000000,-27.57377,153.0133,3.697621,31.89,0,0,115.4,70.3,0,0,0
1583544537000000,-27.57377,153.0133,3.749655,31.89,0,0,115.4,70.3,0,0,0
1583544538000000,-27.57377,153.0133,3.747849,31.89,0,0,115.4,70.3,0,0,0
1583544539000000,-27.57377,153.0133,3.733871,31.89,0,0,115.4,70.3,0,0,0
1583544540000000,-27.57377,153.0133,3.560015,31.89,0,0,115.4,70.3,0,0,0
1583544541000000,-27.57377,153.0133,3.62558,31.89,0,0,115.4,70.3,0,0,0
1583544542000000,-27.57377,153.0133,3.626522,31.89,0,0,115.4,70.3,0,0,0
1583544543000000,-27.57377,153.0133,3.745739,31.89,0,0,115.4,70.3,0,0,0
1583544544000000,-27.57377,153.0133,3.753315,31.89,0,0,115.4,70.3,0,0,0
1583544545000000,-27.57377,153.0133,3.749303,31.89,0,0,115.4,70.3,0,0,0
1583544546000000,-27.57377,153.0133,3.435948,31.89,0,0,115.4,70.3,0,0,0
1583544547000000,-27.57377,153.0133,3.517372,31.89,0,0,115.4,70.3,0,0,0
1583544548000000,-27.57377,153.0133,3.232536,31.89,0,0,115.4,70.3,0,0,0
1583544549000000,-27.57377,153.0133,3.169384,31.89,0,0,115.4,70.3,0,0,0
1583544550000000,-27.57377,153.0133,3.283017,31.89,0,0,115.4,70.3,0,0,0
1583544551000000,-27.57377,153.0133,3.326575,31.89,0,0,115.4,70.3,0,0,0
1583544552000000,-27.57376,153.0133,3.144801,31.89,0,0,115.4,70.3,0,0,0
1583544553000000,-27.57376,153.0133,3.176632,197.07,0,0,115.4,70.3,0,0,0
1583544554000000,-27.57376,153.0133,3.245495,197.07,0,0,115.4,70.3,0,0,0
1583544555000000,-27.57376,153.0133,3.116358,197.07,0,0,115.4,70.3,0,0,0
1583544556000000,-27.57376,153.0133,3.191482,197.07,0,0,115.4,70.3,0,0,0
1583544557000000,-27.57376,153.0133,3.221013,197.07,0,0,115.4,70.3,0,0,0
1583544558000000,-27.57376,153.0133,3.177291,197.07,0,0,115.4,70.3,0,0,0
1583544559000000,-27.57376,153.0133,3.377798,197.07,0,0,115.4,70.3,0,0,0
1583544560000000,-27.57376,153.0133,3.423304,197.07,0,0,115.4,70.3,0,0,0
1583544561000000,-27.57376,153.0133,3.29894,197.07,0,0,115.4,70.3,0,0,0
1583544562000000,-27.57376,153.0133,3.323783,197.07,0,0,115.4,70.3,0,0,0
1583544563000000,-27.57376,153.0133,3.122252,197.07,0,0,115.4,70.3,0,0,0
1583544564000000,-27.57376,153.0133,3.310757,197.07,0,0,115.4,70.3,0,0,0
1583544565000000,-27.57376,153.0133,3.314217,197.07,0,0,115.4,70.3,0,0,0
1583544566000000,-27.57376,153.0133,3.278515,197.07,0,0,115.4,70.3,0,0,0
1583544567000000,-27.57376,153.0133,3.385734,197.07,0,0,115.4,70.3,0,0,0
1583544568000000,-27.57376,153.0133,3.533369,197.07,0,0,115.4,70.3,0,0,0
1583544569000000,-27.57376,153.0133,3.385262,197.07,0,0,115.4,70.3,0,0,0
1583544570000000,-27.57376,153.0133,3.314542,197.07,0,0,115.4,70.3,0,0,0
1583544571000000,-27.57376,153.0133,3.264976,197.07,0,0,115.4,70.3,0,0,0
1583544572000000,-27.57376,153.0133,3.40944,197.07,0,0,115.4,70.3,0,0,0
1583544573000000,-27.57376,153.0133,3.354288,197.07,0,0,115.4,70.3,0,0,0
1583544574000000,-27.57376,153.0133,3.238591,197.07,0,0,115.4,70.3,0,0,0
1583544575000000,-27.57376,153.0133,3.346059,197.07,0,0,115.4,70.3,0,0,0
1583544576000000,-27.57376,153.0133,3.608317,197.07,0,0,115.4,70.3,0,0,0
1583544577000000,-27.57376,153.0133,3.474996,197.07,0,0,115.4,70.3,0,0,0
1583544578000000,-27.57376,153.0133,3.726388,197.07,0,0,115.4,70.3,0,0,0
1583544579000000,-27.57376,153.0133,3.5501,197.07,0,0,115.4,70.3,0,0,0
1583544580000000,-27.57376,153.0133,3.58795,197.07,0,0,115.4,70.3,0,0,0
1583544581000000,-27.57376,153.0133,3.512796,197.07,0,0,115.4,70.3,0,0,0
1583544582000000,-27.57376,153.0133,3.552388,197.07,0,0,115.4,70.3,0,0,0
1583544583000000,-27.57376,153.0133,3.521121,197.07,0,0,115.4,70.3,0,0,0
1583544584000000,-27.57376,153.0133,3.560671,197.07,0,0,115.4,70.3,0,0,0
1583544585000000,-27.57376,153.0133,3.381096,197.07,0,0,115.4,70.3,0,0,0
1583544586000000,-27.57376,153.0133,3.43258,197.07,0,0,115.4,70.3,0,0,0
1583544587000000,-27.57376,153.0133,3.451338,197.07,0,0,115.4,70.3,0,0,0
1583544588000000,-27.57376,153.0133,3.471204,197.07,0,0,115.4,70.3,0,0,0
1583544589000000,-27.57376,153.0133,3.622276,197.07,0,0,115.4,70.3,0,0,0
1583544590000000,-27.57376,153.0133,3.68647,197.07,0,0,115.4,70.3,0,0,0
1583544591000000,-27.57376,153.0133,3.810789,197.07,0,0,115.4,70.3,0,0,0
1583544592000000,-27.57376,153.0133,3.615201,197.07,0,0,115.4,70.3,0,0,0
1583544593000000,-27.57376,153.0133,3.881042,197.07,0,0,115.4,70.3,0,0,0
1583544594000000,-27.57376,153.0133,3.988111,197.07,0,0,115.4,70.3,0,0,0
1583544595000000,-27.57376,153.0133,3.910585,197.07,0,0,115.4,70.3,0,0,0
1583544596000000,-27.57376,153.0133,3.790426,197.07,0,0,115.4,70.3,0,0,0
1583544597000000,-27.57376,153.0133,3.672261,197.07,0,0,115.4,70.3,0,0,0
1583544598000000,-27.57376,153.0133,3.730292,197.07,0,0,115.4,70.3,0,0,0
1583544599000000,-27.57375,153.0133,3.629547,197.07,0,0,115.4,70.3,0,0,0
1583544600000000,-27.57375,153.0133,3.714718,197.07,0,0,115.4,70.3,0,0,0
1583544601000000,-27.57375,153.0133,3.755322,197.07,0,0,115.4,70.3,0,0,0
1583544602000000,-27.57375,153.0133,3.87795,197.07,0,0,115.4,70.3,0,0,0
1583544603000000,-27.57375,153.0133,3.776555,197.07,0,0,115.4,70.3,0,0,0
1583544604000000,-27.57375,153.0133,3.862934,197.07,0,0,115.4,70.3,0,0,0
1583544605000000,-27.57375,153.0133,3.84446,197.07,0,0,115.4,70.3,0,0,0
1583544606000000,-27.57375,153.0133,3.715192,197.07,0,0,115.4,70.3,0,0,0
1583544607000000,-27.57375,153.0133,3.783972,197.07,0,0,115.4,70.3,0,0,0
1583544608000000,-27.57375,153.0133,3.640736,197.07,0,0,115.4,70.3,0,0,0
1583544609000000,-27.57375,153.0133,3.728815,197.07,0,0,115.4,70.3,0,0,0
1583544610000000,-27.57375,153.0133,3.664371,197.07,0,0,115.4,70.3,0,0,0
1583544611000000,-27.57375,153.0133,3.664162,197.07,0,0,115.4,70.3,0,0,0
1583544612000000,-27.57375,153.0133,3.592663,197.07,0,0,115.4,70.3,0,0,0
1583544613000000,-27.57375,153.0133,3.6988,197.07,0,0,115.4,70.3,0,0,0
1583544614000000,-27.57375,153.0133,3.735472,197.07,0,0,115.4,70.3,0,0,0
1583544615000000,-27.57375,153.0133,3.78578,197.07,0,0,115.4,70.3,0,0,0
1583544616000000,-27.57375,153.0133,3.837257,197.07,0,0,115.4,70.3,0,0,0
1583544617000000,-27.57375,153.0133,3.960612,4.44,0,0,115.4,70.3,0,0,0
1583544618000000,-27.57374,153.0133,3.89648,4.44,0,0,115.4,70.3,0,0,0
1583544619000000,-27.57374,153.0133,3.887871,4.44,0,0,115.4,70.3,0,0,0
1583544620000000,-27.57374,153.0133,4.005015,4.44,0,0,115.4,70.3,0,0,0
1583544621000000,-27.57374,153.0133,3.953095,4.44,0,0,115.4,70.3,0,0,0
1583544622000000,-27.57374,153.0133,3.951464,4.44,0,0,115.4,70.3,0,0,0
1583544623000000,-27.57374,153.0133,3.959404,4.44,0,0,115.4,70.3,0,0,0
1583544624000000,-27.57374,153.0133,3.836731,4.44,0,0,115.4,70.3,0,0,0
1583544625000000,-27.57374,153.0133,3.752076,4.44,0,0,115.4,70.3,0,0,0
1583544626000000,-27.57374,153.0133,3.625682,4.44,0,0,115.4,70.3,0,0,0
1583544627000000,-27.57374,153.0133,3.747497,4.44,0,0,115.4,70.3,0,0,0
1583544628000000,-27.57374,153.0133,3.653598,4.44,0,0,115.4,70.3,0,0,0
1583544629000000,-27.57374,153.0133,3.630254,4.44,0,0,115.4,70.3,0,0,0
1583544630000000,-27.57374,153.0133,3.664214,4.44,0,0,115.4,70.3,0,0,0
1583544631000000,-27.57374,153.0133,3.693775,4.44,0,0,115.4,70.3,0,0,0
1583544632000000,-27.57374,153.0133,3.913407,4.44,0,0,115.4,70.3,0,0,0
1583544633000000,-27.57374,153.0133,3.880613,4.44,0,0,115.4,70.3,0,0,0
1583544634000000,-27.57374,153.0133,3.61534,4.44,0,0,115.4,70.3,0,0,0
1583544635000000,-27.57374,153.0133,3.702161,4.44,0,0,115.4,70.3,0,0,0
1583544636000000,-27.57374,153.0133,3.646166,4.44,0,0,115.4,70.3,0,0,0
1583544637000000,-27.57373,153.0133,3.686286,4.44,0,0,115.4,70.3,0,0,0
1583544638000000,-27.57373,153.0133,3.583056,4.44,0,0,115.4,70.3,0,0,0
1583544639000000,-27.57373,153.0133,3.544481,4.44,0,0,115.4,70.3,0,0,0
1583544640000000,-27.57373,153.0133,3.667941,4.44,0,0,115.4,70.3,0,0,0
1583544641000000,-27.57373,153.0133,3.648805,4.44,0,0,115.4,70.3,0,0,0
1583544642000000,-27.57373,153.0133,5.864893,4.44,0,0,115.4,70.3,0,0,0
1583544643000000,-27.57373,153.0133,7.341704,11.96,0,0,115.4,70.3,0,0,0
1583544644000000,-27.57373,153.0133,6.978885,11.96,0,0,115.4,70.3,0,0,0
1583544645000000,-27.57373,153.0133,6.092175,11.96,0,0,115.4,70.3,0,0,0
1583544646000000,-27.57373,153.0133,6.172362,11.96,0,0,115.4,70.3,0,0,0
1583544647000000,-27.57373,153.0133,6.1602,11.96,0,0,115.4,70.3,0,0,0
1583544648000000,-27.57373,153.0133,5.719977,11.96,0,0,115.4,70.3,0,0,0
1583544649000000,-27.57373,153.0133,5.67501,11.96,0,0,115.4,70.3,0,0,0
1583544650000000,-27.57372,153.0133,4.902742,11.96,0,0,115.4,70.3,0,0,0
1583544651000000,-27.57372,153.0133,4.384769,11.96,0,0,115.4,70.3,0,0,0
1583544652000000,-27.57372,153.0133,3.91358,11.96,0,0,115.4,70.3,0,0,0
1583544653000000,-27.57372,153.0133,3.463043,11.96,0,0,115.4,70.3,0,0,0
1583544654000000,-27.57372,153.0133,3.519403,11.96,0,0,115.4,70.3,0,0,0
1583544655000000,-27.57372,153.0133,3.495118,11.96,0,0,115.4,70.3,0,0,0
1583544656000000,-27.57372,153.0133,3.435462,11.96,0,0,115.4,70.3,0,0,0
1583544657000000,-27.57372,153.0133,3.501553,11.96,0,0,115.4,70.3,0,0,0
1583544658000000,-27.57372,153.0133,3.642732,11.96,0,0,115.4,70.3,0,0,0
1583544659000000,-27.57372,153.0133,3.464812,11.96,0,0,115.4,70.3,0,0,0
1583544660000000,-27.57372,153.0133,3.48367,11.96,0,0,115.4,70.3,0,0,0
1583544661000000,-27.57372,153.0133,3.439691,11.96,0,0,115.4,70.3,0,0,0
1583544662000000,-27.57372,153.0133,3.624179,11.96,0,0,115.4,70.3,0,0,0
1583544663000000,-27.57373,153.0133,3.729154,11.96,0,0,115.4,70.3,0,0,0
1583544664000000,-27.57373,153.0133,3.717354,11.96,0,0,115.4,70.3,0,0,0
1583544665000000,-27.57373,153.0133,3.722164,11.96,0,0,115.4,70.3,0,0,0
1583544666000000,-27.57373,153.0133,3.91731,11.96,0,0,115.4,70.3,0,0,0
1583544667000000,-27.57373,153.0133,3.666614,11.96,0,0,115.4,70.3,0,0,0
1583544668000000,-27.57373,153.0133,4.052667,11.96,0,0,115.4,70.3,0,0,0
1583544669000000,-27.57373,153.0133,4.042136,11.96,0,0,115.4,70.3,0,0,0
1583544670000000,-27.57373,153.0133,3.666562,11.96,0,0,115.4,70.3,0,0,0
1583544671000000,-27.57373,153.0133,3.659461,11.96,0,0,115.4,70.3,0,0,0
1583544672000000,-27.57373,153.0133,3.746001,11.96,0,0,115.4,70.3,0,0,0
1583544673000000,-27.57373,153.0133,3.720371,11.96,0,0,115.4,70.3,0,0,0
1583544674000000,-27.57372,153.0133,3.685194,34.6066,0,0,115.4,70.3,0,0,0
1583544675000000,-27.57372,153.0133,3.659633,38.6008,0,0,115.4,70.3,0,0,0
1583544676000000,-27.57372,153.0133,3.938618,39.16,0,0,115.4,70.3,0,0,0
1583544677000000,-27.57372,153.0133,3.634718,39.16,0,0,115.4,70.3,0,0,0
1583544678000000,-27.57372,153.0133,3.916781,39.16,0,0,115.4,70.3,0,0,0
1583544679000000,-27.57373,153.0133,3.702643,39.16,0,0,115.4,70.3,0,0,0
1583544680000000,-27.57373,153.0133,3.668288,39.16,0,0,115.4,70.3,0,0,0
1583544681000000,-27.57373,153.0133,3.478087,39.16,0,0,115.4,70.3,0,0,0
1583544682000000,-27.57373,153.0133,3.310698,39.16,0,0,115.4,70.3,0,0,0
1583544683000000,-27.57373,153.0133,3.474446,39.16,0,0,115.4,70.3,0,0,0
1583544684000000,-27.57372,153.0133,3.712484,39.16,0,0,115.4,70.3,0,0,0
1583544685000000,-27.57372,153.0133,3.668488,39.16,0,0,115.4,70.3,0,0,0
1583544686000000,-27.57372,153.0133,3.687719,39.16,0,0,115.4,70.3,0,0,0
1583544687000000,-27.57372,153.0133,3.793917,39.16,0,0,115.4,70.3,0,0,0
1583544688000000,-27.57373,153.0133,3.877967,39.16,0,0,115.4,70.3,0,0,0
1583544689000000,-27.57372,153.0133,4.031498,39.16,0,0,115.4,70.3,0,0,0
1583544690000000,-27.57372,153.0133,3.809625,39.16,0,0,115.4,70.3,0,0,0
1583544691000000,-27.57372,153.0133,3.963982,39.16,0,0,115.4,70.3,0,0,0
1583544692000000,-27.57372,153.0133,3.723993,39.16,0,0,115.4,70.3,0,0,0
1583544693000000,-27.57372,153.0133,3.885956,39.16,0,0,115.4,70.3,0,0,0
1583544694000000,-27.57372,153.0133,3.913666,39.16,0,0,115.4,70.3,0,0,0
1583544695000000,-27.57372,153.0133,3.560294,39.16,0,0,115.4,70.3,0,0,0
1583544696000000,-27.57372,153.0133,3.729613,39.16,0,0,115.4,70.3,0,0,0
1583544697000000,-27.57372,153.0133,3.734601,39.16,0,0,115.4,70.3,0,0,0
1583544698000000,-27.57372,153.0133,3.495742,39.16,0,0,115.4,70.3,0,0,0
1583544699000000,-27.57372,153.0133,3.550258,39.16,0,0,115.4,70.3,0,0,0
1583544700000000,-27.57372,153.0133,3.416469,39.16,0,0,115.4,70.3,0,0,0
1583544701000000,-27.57372,153.0133,3.459566,39.16,0,0,115.4,70.3,0,0,0
1583544702000000,-27.57372,153.0133,3.452134,39.16,0,0,115.4,70.3,0,0,0